Hourly Data Report for January 25, 2022

CARBERRY CS
MANITOBA
Current Station Operator: ECCC - MSC

49°54'20.900" N
99°21'26.800" W
383.50 m
5010547
71170
WZE

Download Data

Hourly Data (January 2022)
Hourly Data Report for January 25, 2022
TIME
LST
Temp Definition
°C
Dew Point Definition
°C
Rel Hum Definition
%
Precip. Amount Definition
mm

Wind Dir Definition
10's deg

Wind Spd Definition
km/h
Visibility Definition
km
Stn Press Definition
kPa
Hmdx Definition


Wind Chill Definition


Weather Definition


00:00 -31.8 -34.7 75 0.0 25 5   97.80   -38 LegendNANA
01:00 -31.7 -34.4 77 0.0 25 8   97.87   -40 LegendNANA
02:00 -34.2 -37.1 75 0.0 26 12   97.91   -45 LegendNANA
03:00 -31.4 -34.1 77 0.0 26 12   97.99   -42 LegendNANA
04:00 -32.0 -34.5 78 0.0 25 10   98.03   -42 LegendNANA
05:00 -33.9 -36.8 76 0.0 28 15   98.07   -46 LegendNANA
06:00 -33.1 -35.7 78 0.0 28 11   98.13   -43 LegendNANA
07:00 -34.0 -36.7 76 0.0 26 8   98.15   -43 LegendNANA
08:00 -34.9 -37.9 75 0.0 23 4   98.21   -40 LegendNANA
09:00 -35.2 -38.2 75 0.0 25 9   98.26   -45 LegendNANA
10:00 -31.6 -34.8 74 0.0 25 6   98.31   -38 LegendNANA
11:00 -27.3 -30.7 73 0.0 22 6   98.32   -33 LegendNANA
12:00 -24.6 -28.8 68 0.0 23 9   98.29   -32 LegendNANA
13:00 -23.4 -28.7 62 0.0 22 10   98.23   -31 LegendNANA
14:00 -23.8 -29.0 62 0.0 24 11   98.18   -32 LegendNANA
15:00 -23.2 -28.4 62 0.0 25 15   98.10   -33 LegendNANA
16:00 -22.1 -27.1 64 0.0 23 13   98.01   -31 LegendNANA
17:00 -23.3 -27.7 67 0.0 23 12   97.93   -32 LegendNANA
18:00 -25.1 -28.8 71 0.0 20 10   97.83   -33 LegendNANA
19:00 -27.1 -30.2 74 0.0 21 14   97.70   -37 LegendNANA
20:00 -26.6 -29.7 75 0.0 19 16   97.54   -38 LegendNANA
21:00 -26.2 -29.1 76 0.0 20 14   97.33   -36 LegendNANA
22:00 -25.9 -28.8 76 0.0 19 13   97.16   -36 LegendNANA
23:00 -22.7 -27.0 68 0.0 19 24   96.87   -35 LegendNANA

Notes on Data Quality.

Legend

  • E = Estimated
  • M = Missing
  • NA = Not Available*
  • [empty] = Indicates an unobserved value
Date modified: